Regional Weather Roundup
Issued by NWS Upton, NY

Current Version | Previous Version | Graphics & Text | Print | Product List | Glossary Off
Versions: 1 2 3 4 5 6 7 8 9 10 11 12 13 14 15 16 17 18 19 20 21 22 23 24 25 26 27 28 29 30 31 32 33 34 35 36 37 38 39 40 41 42 43 44 45 46 47 48 49 50

000
ASUS41 KOKX 280405
RWROKX

REGIONAL WEATHER ROUNDUP
NATIONAL WEATHER SERVICE NEW YORK NY
1100 PM EST FRI FEB 27 2015

NOTE: "FAIR" INDICATES FEW OR NO CLOUDS BELOW 12,000 FEET WITH NO
SIGNIFICANT WEATHER AND/OR OBSTRUCTIONS TO VISIBILITY.

NYZ071-072-176-178-NJZ106-104-280500-
NEW YORK CITY METRO AREA


CITY           SKY/WX    TMP DP  RH WIND       PRES   REMARKS
CENTRAL PARK   CLEAR     22  -2  35 N10       30.62R WCI  11
LAGUARDIA APRT CLEAR     22   1  40 NW12      30.60R WCI  10
KENNEDY INTL   CLEAR     24   0  35 NW12      30.61R WCI  13
NEWARK/LIBERTY CLEAR     22   1  40 N12       30.62R WCI  10
BRNX BOT. GARD   N/A    N/A N/A N/A W6        30.61R
TETERBORO      CLEAR     20  -3  36 N6        30.61R WCI  12
$$

NYZ177-179-078>081-280500-
LONG ISLAND NEW YORK

CITY           SKY/WX    TMP DP  RH WIND       PRES   REMARKS
FARMINGDALE    CLEAR     22   0  38 NW10      30.59R WCI  11
ISLIP          CLEAR     22   4  46 NW10      30.57R WCI  11
SHIRLEY        CLEAR     18   6  59 N7        30.59R WCI   9
WESTHAMPTON    CLEAR      5  -3  69 N6        30.58R WCI  -6
MONTAUK POINT    N/A     24   5  44 NW13      30.56R WCI  12
$$

NYZ052-065-067-280500-
HUDSON VALLEY

CITY           SKY/WX    TMP DP  RH WIND       PRES   REMARKS
WHITE PLAINS   CLEAR     18  -4  37 NW12      30.55R WCI   5
NEWBURGH       CLEAR     16   1  53 NW9       30.57R WCI   4
MONTGOMERY     CLEAR     13  -5  44 SW3       30.58R
POUGHKEEPSIE   CLEAR      8  -1  66 CALM      30.60R
ALBANY         CLEAR      9  -3  58 CALM      30.62R
$$

NJZ001-105-106-008-010-013-015-019>022-104-280500-
NEW JERSEY

CITY           SKY/WX    TMP DP  RH WIND       PRES   REMARKS
NEWARK/LIBERTY CLEAR     22   1  40 N12       30.62R WCI  10
TETERBORO      CLEAR     20  -3  36 N6        30.61R WCI  12
CALDWELL       CLEAR     18  -3  39 N3        30.61R
MORRISTOWN     CLEAR     21  -4  33 CALM      30.61R
SOMERVILLE     CLEAR     13   2  61 CALM      30.60R
SUSSEX         MIX PCPN   8  -2  63 W3        30.60R
ANDOVER          N/A     10  -3  55 N3        30.59R
TRENTON        CLEAR     19   2  47 CALM      30.60R
MILLVILLE      CLEAR     20   7  57 NW5       30.61R WCI  13
ATLANTIC CITY  CLEAR     19   7  59 NW6       30.61R WCI  11
WRIGHTSTOWN    CLEAR     19   6  55 NW7       30.58R WCI  10
TOMS RIVER     CLEAR     16   7  67 CALM      30.60S
BELMAR         CLEAR     19   1  45 NW5       30.59R WCI  13
$$

PAZ047>061-062-071-280500-
EASTERN PENNSYLVANIA

CITY           SKY/WX    TMP DP  RH WIND       PRES   REMARKS
PHILADELPHIA   CLEAR     25   4  40 NW8       30.63R WCI  16
ALLENTOWN      CLEAR     14  -2  49 NW3       30.60R
SCRANTON       CLEAR     11  -3  53 CALM      30.58R
$$

CTZ002-004>006-009-010-012-RIZ004-006-007-MAZ004-011-015-280500-
SOUTHERN NEW ENGLAND
 IN CT

CITY           SKY/WX    TMP DP  RH WIND       PRES   REMARKS
BRADLEY INTL   CLEAR     15  -3  44 N7        30.56R WCI   5
HARTFORD       CLEAR     17  -2  43 N8        30.59R WCI   7
DANBURY        CLEAR      7  -2  66 CALM      30.57R
WTRBRY/OXFORD  CLEAR     12  -6  44 NW5       30.53R WCI   4
BRIDGEPORT     CLEAR     18   2  49 N7        30.59R WCI   9
MERIDEN        CLEAR     13   1  59 NW6       30.58R WCI   4
NEW HAVEN      CLEAR     19   1  45 N7        30.58R WCI  10
CHESTER        FAIR      19   0  42 N10       30.54R WCI   8
GROTON         CLEAR     18   0  45 NW10      30.56R WCI   6
WILLIMANTIC    CLEAR     15  -2  46 CALM      30.56R

 IN RI

CITY           SKY/WX    TMP DP  RH WIND       PRES   REMARKS
PROVIDENCE     CLEAR     18  -3  39 W5        30.53R WCI  11
BLOCK ISLAND   CLEAR     21   1  42 NW10G18   30.52R WCI  10
WESTERLY       CLEAR     19  -2  39 NW5       30.55R WCI  12

 IN MA

CITY           SKY/WX    TMP DP  RH WIND       PRES   REMARKS
BOSTON         CLEAR     20  -3  36 W9        30.53R WCI   9
WORCESTER      CLEAR     12  -3  51 W15       30.46R WCI  -4
WESTFIELD      CLEAR     14  -2  49 NW6       30.56R WCI   5
PROVINCETOWN   CLEAR     25   7  46 W12       30.50R WCI  14
NANTUCKET      CLEAR     21  12  68 N5        30.50R WCI  15
$$

ANZ330-335-338-340-345-350-353-355-280500-
COASTAL MARINE OBSERVATIONS


STATION/POSITION TIME  SKY/WX   TEMP    WIND        PRES    VSBY  WAVE
                                AIR SEA DIR/SP/G                  HT/PER
                 (UTC)          (F)     (DEG/KT/KT) (MB)    (MI)  (FT/S)
NY HARB ENTRANCE 0400            27 38  340/ 16/ 19 1035.8          4/10
4S FIRE IS       NOT AVBL
20S FIRE ISLAND  0300               36              1035.1          4/10
23SW MTP         0400                                 N/A           4/10
HUDSON CANYON    NOT AVBL
EXECUTION ROCKS  NOT AVBL
WESTERN LI SOUND NOT AVBL
CENTRAL LI SOUND NOT AVBL
EASTERN LI SOUND NOT AVBL
ROBBINS REEF     0400            23     340/ 10/ 14 1035.1
$$


>>>>>>>>>>>>>>>>>>>>>>>>>>>> KEY <<<<<<<<<<<<<<<<<<<<<<<<<<<
>                                                          <
>     SKY/WX - SKY CONDITION/PRESENT WEATHER               <
>     TMP    - TEMPERATURE IN FAHRENHEIT                   <
>     DP     - DEWPOINT IN FAHRENHEIT                      <
>     RH     - RELATIVE HUMIDITY IN PERCENT                <
>     WIND   - DIRECTION AND SPEED IN MPH                  <
>     PRES   - MEAN SEA LEVEL PRESSURE IN INCHES OF HG     <
>     WCI    - WIND CHILL INDEX                            <
>     VSB    - VISIBILITY IN MILES                         <
>     HX     - HEAT INDEX                                  <
>     TC     - TEMPERATURE IN CELSIUS                      <
>     VRB    - VARIABLE WIND DIRECTION                     <
>                                                          <
>>>>>>>>>>>>>>>>>>>>>>>>>>>> KEY <<<<<<<<<<<<<<<<<<<<<<<<<<<





USA.gov is the U.S. government's official web portal to all federal, state and local government web resources and services.